GAOFEN 11-2 (46396 NORAD) Tracking and Keplerian Element Data

This shows tracking and keplerian element data for the satellite.

Feedback or suggestion? Click here.




ElementValue
Catalog46396
NameGAOFEN 11-2
Epoch Orbit1306
Epoch Day336.21356777
Epoch Year2020
RAAN88.4185
Inclination97.3338
Eccentricity0.0288364
Argument of Perigee225.1204
Mean Anonmoly195.2078
Mean Motion15.43070366
Decay Rate0.00092022
L11 46396U 20064A 20336.21356777 .00092022 40871-5 40504-3 0 9998
L22 46396 97.3338 88.4185 0288364 225.1204 195.2078 15.43070366 13061

Live tracking and technical data element details for GAOFEN 11-2 (NORAD 46396). GAOFEN 11-2 can be tracked NOW for your location showing map with azimuth and elevation plus other details from your city location.

Track the satellite on the map from your city or location and see movement details for azimuth, elevation, latitude, longitude, range, height, and movement on the map or in text.







IsCatalogInMostPopularTable: catalog: 46396, numindb: 22
Update: records affected: 1



GetName: 46396 GAOFEN 11-2

Hit Count: updated at: Wed, 02 Dec 2020 05:28:09 GMT